When you browse on this site, cookies collect data to enhance your experience and personalize the content and advertising you see.
Visit our Privacy Policy to learn more. By continuing to use the site, you agree to this use of cookies and data.
  • In Hungary
  • List of Countries
  • For 7 days
  • Water Temperature
  • Weather Map
  • News
  • Weather Widgets
  • user-avatar
    Login

    Hourly Weather Hail

    Today, 14 November, Thursday

    Time Temperature Precipitation Wind Pressure Humidity
    00:00 +16°C° 0 mm 7 mps 662 mmHg 57%
    01:00 +16°C° 0 mm 7 mps 662 mmHg 58%
    02:00 +16°C° 0 mm 7 mps 662 mmHg 59%
    03:00 +16°C° 0 mm 7 mps 661 mmHg 60%
    04:00 +16°C° 0 mm 6 mps 661 mmHg 60%
    05:00 +16°C° 0 mm 6 mps 662 mmHg 61%
    06:00 +16°C° 0 mm 6 mps 662 mmHg 62%
    07:00 +16°C° 0 mm 6 mps 662 mmHg 58%
    08:00 +17°C° 0 mm 7 mps 662 mmHg 54%
    09:00 +18°C° 0 mm 8 mps 663 mmHg 51%
    10:00 +20°C° 0 mm 8 mps 663 mmHg 46%
    11:00 +21°C° 0 mm 8 mps 663 mmHg 42%
    12:00 +22°C° 0 mm 9 mps 663 mmHg 37%
    13:00 +23°C° 0 mm 8 mps 662 mmHg 36%
    14:00 +23°C° 0 mm 8 mps 662 mmHg 35%
    15:00 +24°C° 0 mm 7 mps 661 mmHg 34%
    16:00 +23°C° 0 mm 6 mps 661 mmHg 36%
    17:00 +23°C° 0 mm 4 mps 661 mmHg 37%
    18:00 +22°C° 0 mm 3 mps 661 mmHg 39%
    19:00 +22°C° 0.2 mm 4 mps 661 mmHg 40%
    20:00 +21°C° 0.2 mm 4 mps 661 mmHg 41%
    21:00 +21°C° 0.2 mm 5 mps 662 mmHg 43%
    22:00 +20°C° 0.4 mm 4 mps 662 mmHg 45%
    23:00 +20°C° 0.4 mm 3 mps 661 mmHg 48%

    Tomorrow, 15 November, Friday

    Time Temperature Precipitation Wind Pressure Humidity
    00:00 +19°C° 0.4 mm 2 mps 661 mmHg 51%
    01:00 +19°C° 0.5 mm 3 mps 661 mmHg 53%
    02:00 +18°C° 0.5 mm 4 mps 661 mmHg 54%
    03:00 +18°C° 0.5 mm 4 mps 660 mmHg 56%
    04:00 +18°C° 0.1 mm 4 mps 660 mmHg 56%
    05:00 +18°C° 0.1 mm 3 mps 660 mmHg 56%
    06:00 +17°C° 0.1 mm 3 mps 660 mmHg 56%
    07:00 +18°C° 0 mm 3 mps 661 mmHg 53%
    08:00 +19°C° 0 mm 3 mps 661 mmHg 50%
    09:00 +20°C° 0 mm 4 mps 661 mmHg 47%
    10:00 +21°C° 0 mm 4 mps 661 mmHg 45%
    11:00 +22°C° 0 mm 4 mps 661 mmHg 44%
    12:00 +23°C° 0 mm 5 mps 661 mmHg 42%
    13:00 +25°C° 0 mm 5 mps 661 mmHg 40%
    14:00 +24°C° 0 mm 6 mps 660 mmHg 37%
    15:00 +24°C° 0 mm 7 mps 660 mmHg 35%
    16:00 +23°C° 0 mm 6 mps 660 mmHg 38%
    17:00 +22°C° 0 mm 5 mps 660 mmHg 41%
    18:00 +22°C° 0 mm 5 mps 660 mmHg 44%
    19:00 +21°C° 0 mm 4 mps 660 mmHg 48%
    20:00 +20°C° 0 mm 3 mps 660 mmHg 51%
    21:00 +20°C° 0 mm 3 mps 660 mmHg 55%
    22:00 +19°C° 0 mm 2 mps 660 mmHg 58%
    23:00 +19°C° 0 mm 2 mps 660 mmHg 61%

    Day after tomorrow, 16 November, Saturday

    Time Temperature Precipitation Wind Pressure Humidity
    00:00 +19°C° 0 mm 1 mps 660 mmHg 64%
    01:00 +19°C° 0 mm 1 mps 660 mmHg 65%
    02:00 +18°C° 0 mm 1 mps 659 mmHg 66%
    03:00 +18°C° 0 mm 1 mps 659 mmHg 67%
    04:00 +18°C° 0 mm 1 mps 659 mmHg 67%
    05:00 +16°C° 0 mm 1 mps 659 mmHg 68%
    06:00 +16°C° 0 mm 2 mps 659 mmHg 68%
    07:00 +17°C° 0 mm 2 mps 660 mmHg 63%
    08:00 +18°C° 0 mm 2 mps 660 mmHg 57%
    09:00 +19°C° 0 mm 2 mps 660 mmHg 52%
    10:00 +20°C° 0 mm 2 mps 660 mmHg 46%
    11:00 +21°C° 0 mm 2 mps 660 mmHg 40%
    12:00 +23°C° 0 mm 2 mps 660 mmHg 34%
    13:00 +23°C° 0 mm 2 mps 660 mmHg 31%
    14:00 +24°C° 0 mm 2 mps 659 mmHg 29%
    15:00 +24°C° 0 mm 2 mps 659 mmHg 27%
    16:00 +22°C° 0 mm 3 mps 659 mmHg 31%
    17:00 +22°C° 0 mm 4 mps 659 mmHg 35%
    18:00 +21°C° 0 mm 5 mps 659 mmHg 38%
    19:00 +20°C° 0 mm 6 mps 659 mmHg 42%
    20:00 +20°C° 0 mm 7 mps 659 mmHg 46%
    21:00 +18°C° 0 mm 8 mps 659 mmHg 50%
    22:00 +17°C° 0 mm 8 mps 659 mmHg 52%
    23:00 +17°C° 0 mm 7 mps 659 mmHg 55%

    17 November, Sunday

    Time Temperature Precipitation Wind Pressure Humidity
    00:00 +16°C° 0 mm 7 mps 659 mmHg 57%
    01:00 +16°C° 0.1 mm 7 mps 659 mmHg 60%
    02:00 +15°C° 0.1 mm 7 mps 659 mmHg 64%
    03:00 +13°C° 0.1 mm 8 mps 659 mmHg 67%
    04:00 +13°C° 0.5 mm 8 mps 659 mmHg 70%
    05:00 +12°C° 0.5 mm 8 mps 659 mmHg 73%
    06:00 +11°C° 0.5 mm 8 mps 659 mmHg 75%
    07:00 +12°C° 0.8 mm 8 mps 659 mmHg 73%
    08:00 +12°C° 0.8 mm 8 mps 660 mmHg 72%
    09:00 +12°C° 0.8 mm 8 mps 660 mmHg 70%
    10:00 +13°C° 0.4 mm 8 mps 660 mmHg 65%
    11:00 +16°C° 0.4 mm 8 mps 660 mmHg 60%
    12:00 +17°C° 0.4 mm 7 mps 660 mmHg 56%
    13:00 +17°C° 0.4 mm 7 mps 660 mmHg 54%
    14:00 +19°C° 0.4 mm 6 mps 660 mmHg 53%
    15:00 +19°C° 0.4 mm 6 mps 660 mmHg 52%
    16:00 +17°C° 0.7 mm 5 mps 660 mmHg 54%
    17:00 +17°C° 0.7 mm 5 mps 660 mmHg 57%
    18:00 +16°C° 0.7 mm 5 mps 660 mmHg 59%
    19:00 +16°C° 0.1 mm 5 mps 660 mmHg 62%
    20:00 +15°C° 0.1 mm 6 mps 661 mmHg 64%
    21:00 +15°C° 0.1 mm 6 mps 661 mmHg 66%
    22:00 +14°C° 0 mm 6 mps 661 mmHg 68%
    23:00 +14°C° 0 mm 7 mps 661 mmHg 70%

    18 November, Monday

    Time Temperature Precipitation Wind Pressure Humidity
    00:00 +12°C° 0 mm 7 mps 661 mmHg 72%
    01:00 +13°C° 0 mm 6 mps 661 mmHg 73%
    02:00 +13°C° 0 mm 6 mps 660 mmHg 75%
    03:00 +13°C° 0 mm 5 mps 660 mmHg 76%
    04:00 +12°C° 0 mm 5 mps 660 mmHg 77%
    05:00 +12°C° 0 mm 4 mps 661 mmHg 78%
    06:00 +12°C° 0 mm 4 mps 661 mmHg 78%
    07:00 +13°C° 0 mm 4 mps 661 mmHg 75%
    08:00 +13°C° 0 mm 5 mps 662 mmHg 72%
    09:00 +14°C° 0 mm 5 mps 662 mmHg 68%
    10:00 +15°C° 0 mm 6 mps 662 mmHg 63%
    11:00 +16°C° 0 mm 6 mps 662 mmHg 59%
    12:00 +17°C° 0 mm 6 mps 662 mmHg 54%
    13:00 +19°C° 0 mm 5 mps 662 mmHg 52%
    14:00 +19°C° 0 mm 5 mps 662 mmHg 50%
    15:00 +19°C° 0 mm 5 mps 661 mmHg 48%
    16:00 +19°C° 0 mm 5 mps 661 mmHg 51%
    17:00 +17°C° 0 mm 5 mps 661 mmHg 54%
    18:00 +16°C° 0 mm 5 mps 661 mmHg 56%
    19:00 +16°C° 0 mm 6 mps 662 mmHg 59%
    20:00 +15°C° 0 mm 6 mps 662 mmHg 61%
    21:00 +15°C° 0 mm 6 mps 662 mmHg 64%
    22:00 +14°C° 0 mm 6 mps 662 mmHg 66%
    23:00 +14°C° 0 mm 6 mps 662 mmHg 68%

    19 November, Tuesday

    Time Temperature Precipitation Wind Pressure Humidity
    00:00 +14°C° 0 mm 7 mps 661 mmHg 70%
    01:00 +12°C° 0 mm 7 mps 661 mmHg 70%
    02:00 +12°C° 0 mm 7 mps 661 mmHg 71%
    03:00 +12°C° 0 mm 7 mps 661 mmHg 72%
    04:00 +12°C° 0 mm 7 mps 661 mmHg 73%
    05:00 +12°C° 0 mm 7 mps 661 mmHg 74%
    06:00 +12°C° 0 mm 7 mps 662 mmHg 75%
    07:00 +13°C° 0.1 mm 6 mps 662 mmHg 75%
    08:00 +13°C° 0.1 mm 6 mps 662 mmHg 75%
    09:00 +13°C° 0.1 mm 5 mps 662 mmHg 75%
    10:00 +13°C° 0.1 mm 5 mps 662 mmHg 73%
    11:00 +14°C° 0.1 mm 6 mps 662 mmHg 70%
    12:00 +15°C° 0.1 mm 6 mps 661 mmHg 68%
    13:00 +15°C° 0 mm 6 mps 661 mmHg 65%
    14:00 +16°C° 0 mm 6 mps 661 mmHg 63%
    15:00 +16°C° 0 mm 6 mps 661 mmHg 61%
    16:00 +16°C° 0 mm 6 mps 660 mmHg 64%
    17:00 +15°C° 0 mm 6 mps 660 mmHg 67%
    18:00 +14°C° 0 mm 6 mps 660 mmHg 69%
    19:00 +14°C° 0 mm 5 mps 660 mmHg 71%
    20:00 +14°C° 0 mm 5 mps 660 mmHg 73%
    21:00 +13°C° 0 mm 5 mps 660 mmHg 74%
    22:00 +13°C° 0 mm 5 mps 661 mmHg 75%
    23:00 +13°C° 0 mm 6 mps 661 mmHg 76%
    Show more